Location: Kawakawa
(35.3830°S, 174.0670°E)
Time: 17:39:01
(UTC+13:00)

Cosmos 2333 Rocket - Pass Details

Date: 24 January 2019
Orbit: 840 x 862 km, 70.8° (Epoch: 22 October)

Event Time Altitude Azimuth Distance (km) Brightness Sun altitude
Exits shadow 23:33:07 53° 121° (ESE) 1,062 2.6 -28.1°
Drops below altitude 10° 23:37:45 10° 152° (SSE) 2,524 5.0 -28.6°
Sets 23:40:14 0° 154° (SSE) 3,465 5.8 -28.9°
